[[{"header":{"parameterUnit":"m.s-1","parameterCategory":1,"la1":30.2991,"la2":30.254,"lo1":-89.0895,"lo2":-89.0444,"dy":0.0017,"dx":0.0017,"nx":28,"ny":28,"refTime":"2024-05-26T03:00:00:Z","depth":0,"parameterNumber":2,"parameterNumberName":"U-component_of_WINDS"},"data":[0,0,0,0,0,0,0,0,0,0,0,0,0,0,0,0,0,0,0,0,0,0,0,0,0,0,0,0,0,0,0,0,0,0,0,0,0,0,0,0,0,0,0,0,0,0,0,0,0,0,0,0,0,0,0,0,0,0,1.2848,1.285,0,1.3006,1.3008,1.3009,1.3003,1.3,1.2998,1.2996,1.3162,1.3169,1.3175,0,0,0,0,0,0,0,0,0,0,0,0,0,1.2546,1.2551,1.2848,1.285,1.2852,1.3006,1.3008,1.301,1.3003,1.3,1.2998,1.2995,1.316,1.3168,1.3176,0,0,0,0,0,0,0,0,0,0,0,0,0,1.2688,1.2553,1.2848,1.2867,1.287,1.3005,1.3008,1.301,1.3004,1.3,1.2997,1.2994,1.3158,1.3167,1.3177,1.3304,0,0,1.3207,1.3211,0,0,0,0,0,0,0,0,1.268,1.2699,1.2862,1.2866,1.287,1.2981,1.2962,1.3109,1.3004,1.2953,1.2996,1.2992,1.3105,1.3119,1.3156,1.3312,1.3319,1.3207,1.3213,1.3218,1.322,0,0,0,0,0,0,0,1.267,1.2692,1.2911,1.2865,1.2869,1.2869,1.2886,1.299,1.3046,1.2957,1.2957,1.2976,1.3106,1.3147,1.316,1.3322,1.3207,1.3216,1.3222,1.3226,1.3591,1.3595,0,0,0,0,0,0,1.2655,1.2684,1.2906,1.2915,1.2764,1.2877,1.2896,1.2949,1.3045,1.3056,1.2978,1.2975,1.3131,1.3148,1.3166,1.3322,1.3217,1.3227,1.3232,1.3587,1.3592,1.3596,0,0,0,0,0,0,1.2649,1.2675,1.2899,1.28,1.2828,1.2886,1.2946,1.2954,1.2994,1.3061,1.3071,1.3009,1.313,1.3152,1.327,1.3328,1.3231,1.324,1.3583,1.3589,1.3594,1.3635,0,0,0,0,0,0,1.264,1.2673,1.2721,1.2801,1.2833,1.3,1.2949,1.2959,1.301,1.3007,1.3092,1.3103,1.3129,1.3255,1.3279,1.3339,1.3248,1.3578,1.3586,1.3592,1.3629,1.3642,1.3653,0,0,0,0,0,1.2629,1.2727,1.2723,1.275,1.2894,1.3003,1.3022,1.3048,1.3015,1.3064,1.3107,1.31,1.3317,1.3267,1.3295,1.3358,1.3574,1.3583,1.3592,1.3624,1.3639,1.3653,0,0,0,0,0,0,1.2654,1.2738,1.2734,1.2861,1.2924,1.3001,1.3065,1.3063,1.3139,1.3133,1.3164,1.3183,1.3301,1.3342,1.3284,1.3487,1.3442,1.3456,1.3457,1.3472,1.3484,1.3472,1.3256,0,0,0,0,0,1.2673,1.2753,1.2823,1.2927,1.2959,1.3006,1.3055,1.3069,1.3137,1.3165,1.3216,1.3284,1.3367,1.3422,1.3502,1.3634,1.3654,1.3692,1.3704,1.3713,1.3726,1.38,1.3818,1.3625,1.3625,1.3624,0,0,1.2716,1.2771,1.282,1.2934,1.2985,1.3068,1.3029,1.3119,1.3181,1.3179,1.3293,1.3333,1.3411,1.3537,1.3595,1.3574,1.3783,1.3724,1.3731,1.3739,1.3811,1.3829,1.3845,1.3631,1.363,1.3629,0,0,1.2836,1.2885,1.2978,1.303,1.3107,1.3138,1.316,1.3238,1.3264,1.3378,1.3378,1.3454,1.3596,1.3652,1.3699,1.3839,1.3837,1.3865,1.3927,1.3999,1.4014,1.4028,1.408,1.4097,1.3877,1.3877,1.3877,0,1.2879,1.3003,1.3026,1.3117,1.3167,1.3167,1.3262,1.3312,1.3412,1.3448,1.3422,1.3602,1.3654,1.3793,1.3827,1.3865,1.3892,1.3856,1.401,1.4024,1.4037,1.4087,1.4106,1.388,1.388,1.388,1.3879,0,1.3053,1.3139,1.3205,1.33,1.3358,1.3451,1.349,1.3546,1.3555,1.3589,1.3706,1.3769,1.3862,1.3896,1.3906,1.4037,1.4022,1.4003,1.3958,1.4058,1.4105,1.4124,1.3885,1.3883,1.3883,1.3882,0,0,1.3193,1.33,1.3324,1.3368,1.3453,1.3521,1.3614,1.3703,1.3752,1.3821,1.3901,1.4021,1.4004,1.4057,1.4074,1.4137,1.4246,1.411,1.4113,1.4135,1.4395,1.441,1.4431,1.4243,1.4247,1.425,1.4389,0,1.3323,1.3486,1.351,1.3654,1.3735,1.3736,1.3817,1.3879,1.3913,1.3987,1.4026,1.4111,1.4081,1.4114,1.4176,1.4219,1.4299,1.4209,1.432,1.4323,1.4302,1.4456,1.4472,1.46,1.4408,1.4411,1.4413,0,1.3495,1.3568,1.372,1.3795,1.383,1.3902,1.3987,1.4058,1.4128,1.4149,1.4208,1.4217,1.4315,1.4264,1.4401,1.4339,1.4386,1.4414,1.442,1.4432,1.4375,1.4474,1.4641,1.4661,1.4442,1.444,1.4438,0,1.3584,1.372,1.3829,1.3866,1.3956,1.4007,1.4047,1.4114,1.4167,1.4241,1.4276,1.4361,1.4408,1.4475,1.4507,1.4467,1.4642,1.4594,1.4663,1.4662,1.4701,1.4699,1.488,1.4729,1.4728,1.4728,1.4727,0,1.3727,1.3821,1.387,1.3937,1.4043,1.407,1.4174,1.4212,1.4272,1.4348,1.4354,1.4425,1.4463,1.4541,1.4567,1.4676,1.4697,1.4718,1.4724,1.4718,1.4716,1.475,1.4743,1.4733,1.4732,1.4731,1.473,0,1.3844,1.3881,1.4,1.4075,1.4096,1.417,1.4235,1.4301,1.4334,1.443,1.4455,1.4508,1.4599,1.4637,1.475,1.4767,1.4894,1.4892,1.487,1.4872,1.494,1.4933,1.5151,1.5181,1.5008,1.501,1.5011,0,1.3934,1.4006,1.4088,1.4138,1.418,1.4261,1.4315,1.4344,1.44,1.4486,1.4543,1.4633,1.4708,1.4854,1.4904,1.499,1.4992,1.5062,1.5005,1.4998,1.4995,1.4991,1.4999,1.5073,1.5075,1.5077,1.5078,0,1.4089,1.4103,1.418,1.4263,1.4326,1.4393,1.4459,1.45,1.454,1.4603,1.4696,1.4754,1.4868,1.4959,1.5048,1.5091,1.5093,1.5095,1.5116,1.5112,1.5096,1.5107,1.49,1.509,1.5089,1.5088,1.5087,1.5087,1.4196,1.426,1.4328,1.4414,1.4466,1.4527,1.4593,1.4634,1.4711,1.4806,1.4819,1.4919,1.4989,1.5109,1.5155,1.5234,1.5217,1.5247,1.5255,1.5262,1.5267,1.5082,1.5251,1.525,1.525,1.525,1.525,0,1.4353,1.4397,1.4474,1.4566,1.4633,1.4626,1.4698,1.4755,1.4843,1.4907,1.498,1.5087,1.5176,1.5231,1.5321,1.5374,1.5377,1.5397,1.5394,1.5404,1.5277,1.5251,1.5393,1.5393,1.5393,1.5393,1.5393,1.5393,1.4442,1.4551,1.4574,1.4709,1.4753,1.4849,1.4892,1.4949,1.5,1.5119,1.5192,1.5228,1.5289,1.5383,1.5464,1.5479,1.5512,1.5534,1.5547,1.5428,1.5413,1.5399,1.5374,1.554,1.554,1.5668,1.5669,1.567]},{"header":{"parameterUnit":"m.s-1","parameterCategory":1,"la1":30.2991,"la2":30.254,"lo1":-89.0895,"lo2":-89.0444,"dy":0.0017,"dx":0.0017,"nx":28,"ny":28,"refTime":"2024-05-26T03:00:00:Z","depth":0,"parameterNumber":3,"parameterNumberName":"V-component_of_WINDS"},"data":[0,0,0,0,0,0,0,0,0,0,0,0,0,0,0,0,0,0,0,0,0,0,0,0,0,0,0,0,0,0,0,0,0,0,0,0,0,0,0,0,0,0,0,0,0,0,0,0,0,0,0,0,0,0,0,0,0,0,5.6672,5.6673,0,5.6795,5.6797,5.6798,5.6779,5.6777,5.6775,5.6773,5.6889,5.6894,5.6899,0,0,0,0,0,0,0,0,0,0,0,0,0,5.6409,5.6414,5.6672,5.6673,5.6675,5.6795,5.6797,5.6798,5.6779,5.6777,5.6774,5.6772,5.6888,5.6894,5.69,0,0,0,0,0,0,0,0,0,0,0,0,0,5.6527,5.6415,5.6671,5.668,5.6682,5.6795,5.6797,5.6799,5.678,5.6777,5.6774,5.6771,5.6886,5.6893,5.69,5.7009,0,0,5.6924,5.6927,0,0,0,0,0,0,0,0,5.652,5.6536,5.6677,5.668,5.6682,5.6769,5.6747,5.6869,5.6781,5.6742,5.6773,5.6769,5.6851,5.6861,5.6891,5.7015,5.702,5.6924,5.6929,5.6932,5.6934,0,0,0,0,0,0,0,5.6512,5.6531,5.672,5.6679,5.6682,5.6674,5.6688,5.677,5.6812,5.6745,5.6744,5.676,5.6852,5.6884,5.6893,5.7022,5.6924,5.6931,5.6935,5.6938,5.724,5.7243,0,0,0,0,0,0,5.6503,5.6524,5.6716,5.6724,5.6592,5.6682,5.6696,5.6744,5.6811,5.6819,5.6762,5.6758,5.6872,5.6885,5.6897,5.7029,5.6932,5.6939,5.6943,5.7236,5.7241,5.7244,0,0,0,0,0,0,5.6497,5.652,5.6711,5.6624,5.6648,5.669,5.6743,5.6748,5.678,5.6824,5.6831,5.6788,5.687,5.6887,5.6982,5.7033,5.6942,5.6949,5.7232,5.7238,5.7242,5.7294,0,0,0,0,0,0,5.649,5.6518,5.6563,5.6625,5.6653,5.6797,5.6746,5.6753,5.6794,5.6791,5.685,5.6857,5.6869,5.6971,5.699,5.7042,5.6955,5.7228,5.7235,5.7241,5.7288,5.7301,5.7311,0,0,0,0,0,5.648,5.657,5.6565,5.6588,5.6709,5.68,5.6816,5.6831,5.6799,5.6842,5.687,5.6855,5.7025,5.6981,5.7002,5.7057,5.7225,5.7233,5.724,5.7283,5.7298,5.7311,0,0,0,0,0,0,5.6508,5.6578,5.6573,5.6687,5.6738,5.6797,5.6852,5.6846,5.6905,5.6899,5.6912,5.6925,5.7022,5.7049,5.6999,5.7165,5.712,5.7132,5.7145,5.716,5.7171,5.7162,5.6962,0,0,0,0,0,5.6529,5.66,5.6656,5.675,5.6777,5.681,5.685,5.6858,5.691,5.6931,5.6966,5.7015,5.7079,5.712,5.7182,5.7292,5.7303,5.734,5.7351,5.736,5.7371,5.743,5.7446,5.727,5.727,5.727,0,0,5.6569,5.6616,5.666,5.6757,5.6798,5.6869,5.6828,5.6905,5.6956,5.6941,5.7035,5.7062,5.7116,5.722,5.7267,5.7245,5.7422,5.737,5.7377,5.7383,5.7439,5.7456,5.7471,5.7275,5.7274,5.7274,0,0,5.668,5.6724,5.6808,5.685,5.6914,5.6935,5.6955,5.7015,5.7034,5.7129,5.7119,5.7178,5.7289,5.7328,5.7363,5.7488,5.7476,5.7508,5.7568,5.7625,5.7639,5.7651,5.7696,5.7711,5.7518,5.7518,5.7518,0,5.6722,5.6832,5.685,5.6929,5.6971,5.6964,5.7047,5.7085,5.7164,5.7192,5.7167,5.7306,5.7342,5.7454,5.7485,5.7513,5.7534,5.7501,5.7636,5.7649,5.766,5.7703,5.7719,5.7521,5.7521,5.7521,5.752,0,5.688,5.6956,5.7015,5.7096,5.7144,5.7224,5.7252,5.7298,5.7301,5.7324,5.7419,5.7462,5.7533,5.7559,5.7562,5.7671,5.7656,5.7634,5.7588,5.7681,5.772,5.7737,5.7526,5.7525,5.7524,5.7523,0,0,5.7012,5.7103,5.7124,5.7161,5.723,5.7288,5.7366,5.7438,5.7477,5.7531,5.7595,5.7689,5.7669,5.7708,5.7715,5.7765,5.7861,5.7736,5.7738,5.7758,5.7984,5.8,5.8019,5.7854,5.7857,5.7859,5.7979,0,5.713,5.7274,5.7292,5.7418,5.7487,5.7481,5.7549,5.7597,5.762,5.768,5.7704,5.777,5.7739,5.7763,5.7813,5.7839,5.7907,5.7831,5.7911,5.7914,5.7899,5.804,5.8058,5.8169,5.7995,5.7997,5.7999,0,5.7287,5.735,5.7483,5.7544,5.7573,5.7635,5.7702,5.776,5.7813,5.7826,5.787,5.787,5.7948,5.7899,5.8005,5.7953,5.7987,5.8005,5.8009,5.8017,5.7962,5.8051,5.8205,5.8222,5.8024,5.8022,5.802,0,5.737,5.7487,5.7582,5.7613,5.7686,5.7729,5.776,5.7811,5.7853,5.791,5.7937,5.8001,5.8036,5.8084,5.81,5.8064,5.8205,5.8158,5.8216,5.8216,5.8247,5.8244,5.8407,5.8268,5.8268,5.8268,5.8268,0,5.7499,5.7581,5.7621,5.768,5.777,5.7789,5.7877,5.7905,5.7951,5.8012,5.8009,5.8066,5.8084,5.8143,5.8155,5.8241,5.8256,5.8267,5.8269,5.8268,5.8266,5.829,5.8282,5.8272,5.8271,5.827,5.827,0,5.7608,5.7638,5.7741,5.7802,5.7819,5.7884,5.7934,5.7989,5.8011,5.8089,5.8108,5.8143,5.8212,5.8234,5.8316,5.8324,5.8424,5.8419,5.8408,5.8408,5.8465,5.8459,5.8649,5.8674,5.8518,5.852,5.8521,0,5.7689,5.7752,5.7821,5.7864,5.7898,5.7967,5.8011,5.803,5.8075,5.8141,5.8187,5.8257,5.8314,5.8424,5.8454,5.8517,5.8513,5.8576,5.8523,5.8519,5.8514,5.851,5.8516,5.8585,5.8587,5.8588,5.8589,0,5.7829,5.7841,5.7906,5.7977,5.8031,5.8086,5.8139,5.8173,5.82,5.825,5.8323,5.8367,5.8453,5.8521,5.8585,5.8613,5.8605,5.8606,5.8623,5.8622,5.8612,5.8618,5.8435,5.8601,5.86,5.8599,5.8599,5.8598,5.7926,5.7982,5.804,5.8112,5.8155,5.8205,5.826,5.8291,5.8354,5.8428,5.8434,5.8513,5.8562,5.8648,5.8679,5.8739,5.872,5.8744,5.8751,5.8756,5.8761,5.8603,5.875,5.875,5.8749,5.8749,5.8749,0,5.8066,5.8103,5.817,5.8247,5.8303,5.8294,5.8352,5.8399,5.847,5.8518,5.8575,5.8658,5.8724,5.876,5.8826,5.8866,5.8864,5.8882,5.8879,5.8886,5.8774,5.8753,5.8883,5.8883,5.8883,5.8883,5.8883,5.8883,5.8146,5.8241,5.8259,5.8374,5.8409,5.849,5.8524,5.8568,5.8608,5.8702,5.8759,5.8783,5.8826,5.8894,5.8953,5.8962,5.8985,5.9006,5.9013,5.8907,5.8894,5.8881,5.8861,5.9012,5.9012,5.9119,5.912,5.9121]}]]